901  
ASUS42 KFFC 272310  
RWRGA  
WEATHER ROUNDUP FOR GEORGIA  
NATIONAL WEATHER SERVICE PEACHTREE CITY GA  
700 PM EDT WED OCT 27 2021  
 
NOTE: "FAIR" INDICATES FEW OR NO CLOUDS BELOW 12,000 FEET WITH NO  
SIGNIFICANT WEATHER AND/OR S TO VISIBILITY
.  
 
* = USE WITH CAUTION. THE STATIONS MARKED WITH AN ASTERISK MAY NOT  
REPORT WEATHER SUCH AS PRECIPITATION, FOG, OR THUNDER AND ARE NOT  
QUALITY CONTROLLED BY NWS.  
 
THE REMARK "TC" DENOTES TEMPERATURE READING IN DEGREES CELSIUS.  
 
GAZ001>058-280000-  
NORTH GEORGIA  
 
CITY SKY/WX TMP DP RH WIND PRES REMARKS
 
ATLANTA PTCLDY 67 46 47 SE6 29.83R  
ATHENS CLEAR 60 48 64 CALM 29.86R  
CHAMBLEE CLEAR 62 47 57 CALM 29.83R  
PEACHTREE CITY CLEAR 60 55 83 CALM 29.84R  
ROME PTCLDY 62 46 55 CALM 29.82R  
WEST ATLANTA CLEAR 65 44 46 CALM 29.82S  
GAINESVILLE CLEAR 61 41 47 MISG 29.87R  
CARTERSVILLE CLEAR 63 50 63 CALM 29.83S  
 
 
CITY SKY/WX TMP DP RH WIND PRES REMARKS
 
DALTON* CLEAR 57 48 72 CALM 29.85S  
LAWRENCEVILLE* CLEAR 62 49 62 CALM 29.85R  
MARIETTA PTCLDY 62 45 53 CALM 29.83R  
KENNESAW* CLEAR 66 46 48 NW6 29.84R  
CANTON* CLEAR 64 46 52 CALM 29.86R  
BLAIRSVILLE* CLEAR 58 44 60 CALM 29.87S  

 
 
GAZ059>098-102>109-280000-  
CENTRAL GEORGIA  
 
CITY SKY/WX TMP DP RH WIND PRES REMARKS
 
AUGUSTA-BUSH CLEAR 59 48 67 CALM 29.85R  
AUGUSTA-DANIEL CLEAR 65 43 44 N6 29.86S  
COLUMBUS CLEAR 69 49 48 SE5 29.80S  
MACON PTCLDY 64 51 62 S5 29.84S  
ROBINS AFB CLEAR 62 54 74 SE6 29.83S  
 
 
CITY SKY/WX TMP DP RH WIND PRES REMARKS
 
LAGRANGE* CLEAR 60 54 81 CALM 29.82R  
SYLVANIA* PTCLDY 58 50 73 CALM 29.86S  

 
 
GAZ099>101-110>166-280000-  
SOUTH GEORGIA  
 
CITY SKY/WX TMP DP RH WIND PRES REMARKS
 
SAVANNAH PTCLDY 63 48 58 N5 29.86R  
VALDOSTA CLEAR 65 57 75 CALM 29.84R  
ALMA MOCLDY 65 57 75 CALM 29.85R  
ST SIMONS PTCLDY 66 56 70 CALM 29.86R  
FT STEWART CLEAR 60 54 79 CALM 29.84R  
ALBANY PTCLDY 71 53 52 SE3 29.83F  
HUNTER AFB CLEAR 62 50 65 CALM 29.83S  
MOODY AFB CLEAR 66 54 65 CALM 29.82S  
BRUNSWICK PTCLDY 62 55 79 E3 29.86F  
 
 
CITY SKY/WX TMP DP RH WIND PRES REMARKS
 
MOULTRIE* PTCLDY 64 55 72 CALM 29.83F  
VIDALIA* PTCLDY 63 52 67 CALM 29.86R  
WAYCROSS* MOCLDY 68 64 88 CALM 29.84S  
DOUGLAS* PTCLDY 68 57 66 CALM 29.86S  

 
 
 
CLICK HERE TO GO TO PREVIOUS BULLETINS.

The Nexlab GA Page Main Text Page